TimeAKST,TemperatureF,Dew PointF,Humidity,Sea Level PressureIn,VisibilityMPH,Wind Direction,Wind SpeedMPH,Gust SpeedMPH,PrecipitationIn,Events,Conditions,WindDirDegrees,DateUTC
12:53 AM,39.9,37.0,89,29.93,10.0,SE,4.6,-,N/A,,Clear,140,2012-11-15 09:53:00
1:53 AM,42.1,37.9,85,29.92,10.0,SSE,6.9,-,N/A,,Partly Cloudy,160,2012-11-15 10:53:00
2:53 AM,41.0,37.0,86,29.92,10.0,South,8.1,-,N/A,,Mostly Cloudy,180,2012-11-15 11:53:00
3:53 AM,41.0,37.0,86,29.91,10.0,South,6.9,-,N/A,,Overcast,180,2012-11-15 12:53:00
4:53 AM,42.1,39.0,89,29.90,10.0,SSE,5.8,-,N/A,,Overcast,160,2012-11-15 13:53:00
5:06 AM,42.8,39.2,87,29.89,10.0,SSE,5.8,-,N/A,,Overcast,160,2012-11-15 14:06:00
5:22 AM,41.0,39.2,93,29.89,8.0,SSE,5.8,-,0.00,Rain,Light Rain,150,2012-11-15 14:22:00
5:45 AM,41.0,39.2,93,29.89,10.0,SSE,5.8,-,0.00,,Overcast,160,2012-11-15 14:45:00
5:53 AM,42.1,39.0,89,29.89,10.0,SE,6.9,-,0.00,,Overcast,140,2012-11-15 14:53:00
6:53 AM,42.1,37.9,85,29.89,4.0,SE,10.4,-,0.05,Rain,Light Rain,140,2012-11-15 15:53:00
7:53 AM,41.0,39.0,93,29.89,9.0,SE,9.2,-,0.03,Rain,Light Rain,140,2012-11-15 16:53:00
8:53 AM,41.0,39.0,93,29.88,8.0,SE,10.4,-,0.01,Rain,Light Rain,140,2012-11-15 17:53:00
9:53 AM,42.1,39.0,89,29.86,10.0,SE,10.4,-,0.02,,Overcast,140,2012-11-15 18:53:00
10:53 AM,43.0,39.0,86,29.84,10.0,SE,8.1,-,0.00,Rain,Light Rain,140,2012-11-15 19:53:00
11:53 AM,42.1,39.0,89,29.83,7.0,SE,11.5,-,0.01,Rain,Light Rain,130,2012-11-15 20:53:00
12:53 PM,43.0,39.9,89,29.80,10.0,SSE,6.9,-,0.00,,Mostly Cloudy,160,2012-11-15 21:53:00
1:53 PM,42.1,39.9,92,29.78,7.0,SSE,4.6,-,0.03,Rain,Light Rain,160,2012-11-15 22:53:00
2:53 PM,42.1,39.9,92,29.75,6.0,SSE,6.9,-,0.04,,Overcast,160,2012-11-15 23:53:00
3:53 PM,42.1,39.9,92,29.73,10.0,SE,10.4,16.1,0.02,,Overcast,140,2012-11-16 00:53:00
4:53 PM,42.1,39.0,89,29.70,10.0,South,5.8,-,0.00,,Overcast,170,2012-11-16 01:53:00
5:53 PM,42.8,39.2,87,29.67,10.0,SE,18.4,24.2,N/A,Rain,Light Rain,130,2012-11-16 02:53:00
6:53 PM,42.8,37.4,81,29.64,10.0,SE,10.4,21.9,N/A,,Overcast,140,2012-11-16 03:53:00
7:53 PM,43.0,36.0,76,29.61,10.0,SSE,8.1,16.1,0.00,,Overcast,160,2012-11-16 04:53:00
8:53 PM,42.1,37.0,82,29.57,10.0,South,8.1,17.3,0.00,,Overcast,180,2012-11-16 05:53:00
9:53 PM,44.1,36.0,73,29.53,10.0,SE,15.0,23.0,0.02,Rain,Light Rain,140,2012-11-16 06:53:00
10:36 PM,42.8,35.6,76,29.50,10.0,SSE,15.0,27.6,0.03,Rain,Light Rain,150,2012-11-16 07:36:00
10:53 PM,42.1,36.0,79,29.50,8.0,SSE,13.8,35.7,0.06,Rain,Rain,150,2012-11-16 07:53:00
11:53 PM,39.9,36.0,86,29.47,9.0,SSE,13.8,24.2,0.13,Rain,Light Rain,150,2012-11-16 08:53:00